Погода в Докучаевске

Украина / Донецкая область     47°44′45″N   37°40′34″E
темп.,
°C
ветер,
м/с
пор.,
м/с
влажн.,
%
обл.,
%
осадки,
мм/ч
давл.,
гПа
погр.,
м
26 февраля, пт
пт2623:00+1зюз71292100 0.1 1027240
02:00+1з51197100 0.1 1025280
05:00+3зсз51198100 0.1 1024253
08:00+3зсз51098100 0.2 1023223
11:00+4зсз4898100 0.1 1023173
14:00+6з6109499 0.1 1022346
17:00+4зюз499568 0.0 1021279
20:00+4зюз5119781 0.0 1019396
27 февраля, сб
сб2723:00+4зюз51098100 0.0 1018343
02:00+4з41096100 0.0 1017285
05:00+3з489695 0.0 1015239
08:00+4зюз379797 0.0 1014254
11:00+4зюз5997100 0.1 1013308
14:00+4зсз51095100 0.8 1013428
17:00+3сз51091100 0.4 1013628
20:00+3сз4987100 0.4 1014377
28 февраля, вс
вс2823:00+1сз499456 0.0 1015340
02:00+1зсз479077 0.1 1015277
05:00+1сз4797100 0.1 1016410
08:00+2ссз3589100 0.1 1016408
11:00+2ссз359099 0.2 1017428
14:00+2ссз4594100 0.6 1018409
17:00+2ссз357796 0.1 1018560
20:00+1ссз368498 0.2 1021297
1 марта, пн
пн123:000с369096 0.2 1021396
02:00−2ссз228589 0.2 102359
05:00−2сз248166 0.0 1023124
08:000сз348677 0.0 1025403
11:00+2ссв336393 0.1 1026907
14:00+3ссв335895 0.2 10271061
17:00+1в236799 0.0 102761
20:000в227597 0.0 103031
2 марта, вт
вт223:00−1в117777 0.0 103121
02:00−1з007775 0.0 103121
05:00−2зсз127917 0.0 103121
08:000з347442 0.0 1031340
11:00+3зсз456297 0.0 10311044
14:00+3з676098 0.0 10281109
17:00+2з51066100 0.0 1026553
20:00+1з51178100 0.0 1025614